Location: Gwatt
(46.7204°N, 7.6223°E)
Time: 05:49:03
(UTC+00:00)

S-56A Canister/Altair - Pass Details

Date: 28 January 2021
Orbit: 632 x 2501 km, 38.9° (Epoch: 08 March)

Event Time Altitude Azimuth Distance (km) Brightness Sun altitude
Exits shadow 05:04:43 18° 216° (SW) 1,638 8.9 -19.5°
Maximum altitude 05:05:47 20° 198° (SSW) 1,618 9.1 -19.3°
Drops below altitude 10° 05:09:35 10° 153° (SSE) 2,398 10.5 -18.6°
Sets 05:13:05 0° 137° (SE) 3,598 11.8 -18.1°
